Location: Ariel
(45.9570°N, 122.5700°W)
Time: 00:07:35
(UTC-07:00)

Transit 2A Rocket - Pass Details

Date: 21 July 2019
Orbit: 590 x 913 km, 66.7° (Epoch: 24 August)

Event Time Altitude Azimuth Distance (km) Brightness Sun altitude
Exits shadow 04:57:23 - 229° (SW) 2,714 7.1 -6.9°
Reaches altitude 10° 04:57:49 10° 230° (SW) 2,562 7.0 -6.9°
Maximum altitude 05:03:40 55° 308° (NW) 1,029 5.6 -6.1°
Drops below altitude 10° 05:09:11 10° 26° (NNE) 2,412 8.8 -5.3°
Sets 05:11:35 0° 31° (NNE) 3,297 9.8 -5.0°
